Hourly Data Report for June 10, 2019

All times are specified in Local Standard Time (LST). Add 1 hour to adjust for Daylight Saving Time where and when it is observed.

KELOWNA UBCO
BRITISH COLUMBIA
Current Station Operator: ECCC - MSC

49°56'26.700" N
119°24'00.760" W
456.00 m
1123996
71644
VKU

Download Data

Hourly Data (June 2019)
Hourly Data Report for June 10, 2019
TIME Temp Definition
°C
Dew Point Definition
°C
Rel Hum Definition
%
Wind Dir Definition
10's deg

Wind Spd Definition
km/h
Visibility Definition
km
Stn Press Definition
kPa
Hmdx Definition


Wind Chill Definition


Weather Definition


00:00 12.7 5.0 60       97.12     LegendNANA
01:00 12.7 5.2 60       97.12     LegendNANA
02:00 11.2 4.7 64       97.12     LegendNANA
03:00 10.8 6.1 73       97.13     LegendNANA
04:00 10.5 5.5 71       97.11     LegendNANA
05:00 11.1 5.6 69       97.12     LegendNANA
06:00 12.1 6.4 68       97.14     LegendNANA
07:00 13.9 5.7 58       97.11     LegendNANA
08:00 15.3 4.9 50       97.11     LegendNANA
09:00 16.3 4.8 46       97.10     LegendNANA
10:00 17.6 3.7 39       97.06     LegendNANA
11:00 17.0 4.7 44       97.08     LegendNANA
12:00 17.6 3.8 40       97.09     LegendNANA
13:00 20.1 3.7 34       97.10     LegendNANA
14:00 21.3 2.6 29       97.04     LegendNANA
15:00 21.6 3.9 31       97.01     LegendNANA
16:00 22.9 4.4 30       96.98     LegendNANA
17:00 22.5 5.2 32       96.97     LegendNANA
18:00 20.9 4.7 35       96.96     LegendNANA
19:00 20.3 5.1 37       96.97     LegendNANA
20:00 18.2 5.6 43       97.02     LegendNANA
21:00 16.8 6.6 51       97.07     LegendNANA
22:00 14.8 6.9 59       97.09     LegendNANA
23:00 13.4 7.0 65       97.14     LegendNANA

Notes on Data Quality.

Legend

  • E = Estimated
  • M = Missing
  • NA = Not Available*
  • [empty] = Indicates an unobserved value
Date modified: